| time (UTC) | temp F | wind direction | speed knots | gust knots | rain 1hr in | rain 24hr in | rain mn in | humidity % | barometer mb |
| 20260504050534 | 56 | 130 | 1.7 | 5.2 | 0.00 | 0.00 | 0.00 | 38 | 996.0 |
| 20260504045529 | 56 | 143 | 1.7 | 3.5 | 0.00 | 0.00 | 0.00 | 38 | 996.3 |
| 20260504044525 | 55 | 133 | 2.6 | 7.8 | 0.00 | 0.00 | 0.00 | 38 | 996.5 |
| 20260504043522 | 56 | 155 | 1.7 | 4.3 | 0.00 | 0.00 | 0.00 | 38 | 996.8 |
| 20260504042519 | 56 | 173 | 1.7 | 3.5 | 0.00 | 0.00 | 0.00 | 37 | 996.9 |
| 20260504041556 | 56 | 161 | 1.7 | 4.3 | 0.00 | 0.00 | 0.00 | 37 | 997.3 |
| 20260504040533 | 56 | 153 | 1.7 | 9.6 | 0.00 | 0.00 | 0.00 | 36 | 997.5 |
| 20260504035529 | 56 | 175 | 1.7 | 3.5 | 0.00 | 0.00 | 0.00 | 37 | 997.8 |
| 20260504034546 | 56 | 134 | 1.7 | 4.3 | 0.00 | 0.00 | 0.00 | 37 | 998.0 |
| 20260504033523 | 57 | 150 | 1.7 | 6.1 | 0.00 | 0.00 | 0.00 | 36 | 998.3 |
| 20260504032519 | 57 | 163 | 0.9 | 2.6 | 0.00 | 0.00 | 0.00 | 36 | 998.5 |
| 20260504031536 | 57 | 157 | 1.7 | 3.5 | 0.00 | 0.00 | 0.00 | 35 | 998.8 |
| 20260504030532 | 57 | 151 | 1.7 | 3.5 | 0.00 | 0.00 | 0.00 | 35 | 999.0 |
| 20260504025529 | 57 | 154 | 1.7 | 3.5 | 0.00 | 0.00 | 0.00 | 35 | 999.3 |
| 20260504024525 | 56 | 149 | 1.7 | 5.2 | 0.00 | 0.00 | 0.00 | 36 | 999.4 |
| 20260504023522 | 56 | 142 | 0.9 | 2.6 | 0.00 | 0.00 | 0.00 | 36 | 999.5 |
| 20260504022518 | 56 | 163 | 1.7 | 4.3 | 0.00 | 0.00 | 0.00 | 36 | 999.6 |
| 20260504021534 | 56 | 140 | 0.9 | 2.6 | 0.00 | 0.00 | 0.00 | 37 | 999.7 |
| 20260504020531 | 57 | 130 | 0.9 | 1.7 | 0.00 | 0.00 | 0.00 | 36 | 1000.0 |
| 20260504015527 | 57 | 161 | 0.9 | 3.5 | 0.00 | 0.00 | 0.00 | 35 | 1000.1 |
| 20260504014544 | 57 | 147 | 0.9 | 1.7 | 0.00 | 0.00 | 0.00 | 35 | 1000.2 |
| 20260504013521 | 58 | 158 | 0.9 | 2.6 | 0.00 | 0.00 | 0.00 | 35 | 1000.4 |
| 20260504012618 | 59 | 156 | 0.9 | 1.7 | 0.00 | 0.00 | 0.00 | 33 | 1000.5 |
| 20260504011535 | 60 | 146 | 0.9 | 1.7 | 0.00 | 0.00 | 0.00 | 31 | 1000.6 |
| 20260504010531 | 61 | 143 | 0.9 | 1.7 | 0.00 | 0.00 | 0.00 | 31 | 1000.8 |
| 20260504005527 | 62 | 223 | 0.0 | 3.5 | 0.00 | 0.00 | 0.00 | 30 | 1000.8 |
| 20260504004524 | 63 | 216 | 0.9 | 1.7 | 0.00 | 0.00 | 0.00 | 29 | 1000.8 |
| 20260504003521 | 64 | 285 | 0.9 | 3.5 | 0.00 | 0.00 | 0.00 | 28 | 1001.0 |
| 20260504002638 | 64 | 268 | 2.6 | 7.0 | 0.00 | 0.00 | 0.00 | 27 | 1001.1 |
| 20260504001534 | 65 | 298 | 0.9 | 5.2 | 0.00 | 0.00 | 0.00 | 27 | 1001.2 |
| 20260504000532 | 65 | 288 | 1.7 | 5.2 | 0.00 | 0.00 | 0.00 | 26 | 1001.3 |
| 20260503235547 | 65 | 275 | 2.6 | 7.0 | 0.00 | 0.00 | 0.00 | 26 | 1001.2 |
| 20260503234524 | 66 | 293 | 3.5 | 7.8 | 0.00 | 0.00 | 0.00 | 25 | 1001.3 |
| 20260503233601 | 65 | 277 | 2.6 | 7.0 | 0.00 | 0.00 | 0.00 | 26 | 1001.4 |
| 20260503232518 | 65 | 296 | 1.7 | 6.1 | 0.00 | 0.00 | 0.00 | 28 | 1001.3 |
| 20260503231535 | 65 | 274 | 2.6 | 5.2 | 0.00 | 0.00 | 0.00 | 27 | 1001.6 |
| 20260503230532 | 67 | 284 | 4.3 | 7.8 | 0.00 | 0.00 | 0.00 | 25 | 1001.7 |
| 20260503225529 | 66 | 281 | 3.5 | 7.8 | 0.00 | 0.00 | 0.00 | 26 | 1001.9 |
| 20260503224524 | 66 | 302 | 2.6 | 6.1 | 0.00 | 0.00 | 0.00 | 25 | 1002.0 |
| 20260503223521 | 67 | 296 | 3.5 | 7.8 | 0.00 | 0.00 | 0.00 | 24 | 1002.0 |
| 20260503222517 | 67 | 289 | 6.1 | 13.0 | 0.00 | 0.00 | 0.00 | 24 | 1002.0 |
| 20260503221534 | 67 | 299 | 5.2 | 13.0 | 0.00 | 0.00 | 0.00 | 24 | 1002.0 |
| 20260503220531 | 67 | 281 | 5.2 | 14.8 | 0.00 | 0.00 | 0.00 | 24 | 1002.1 |
| 20260503215528 | 68 | 294 | 3.5 | 9.6 | 0.00 | 0.00 | 0.00 | 25 | 1002.0 |
| 20260503214525 | 67 | 277 | 4.3 | 8.7 | 0.00 | 0.00 | 0.00 | 26 | 1002.0 |
| 20260503213522 | 67 | 270 | 3.5 | 7.0 | 0.00 | 0.00 | 0.00 | 26 | 1002.1 |
| 20260503212519 | 66 | 279 | 4.3 | 12.2 | 0.00 | 0.00 | 0.00 | 26 | 1002.3 |
| 20260503211535 | 67 | 280 | 3.5 | 9.6 | 0.00 | 0.00 | 0.00 | 26 | 1002.2 |
| 20260503210533 | 66 | 317 | 3.5 | 9.6 | 0.00 | 0.00 | 0.00 | 27 | 1002.4 |
| 20260503205550 | 65 | 284 | 3.5 | 9.6 | 0.00 | 0.00 | 0.00 | 27 | 1002.5 |
| 20260503204525 | 65 | 292 | 5.2 | 11.3 | 0.00 | 0.00 | 0.00 | 27 | 1002.8 |
| 20260503203522 | 66 | 293 | 7.0 | 11.3 | 0.00 | 0.00 | 0.00 | 26 | 1002.9 |
| 20260503202519 | 65 | 296 | 4.3 | 7.8 | 0.00 | 0.00 | 0.00 | 27 | 1003.0 |
| 20260503201537 | 65 | 299 | 5.2 | 11.3 | 0.00 | 0.00 | 0.00 | 26 | 1003.0 |
| 20260503200534 | 65 | 280 | 3.5 | 9.6 | 0.00 | 0.00 | 0.00 | 27 | 1003.2 |
| 20260503195530 | 65 | 298 | 4.3 | 11.3 | 0.00 | 0.00 | 0.00 | 27 | 1003.3 |
| 20260503194526 | 64 | 298 | 5.2 | 11.3 | 0.00 | 0.00 | 0.00 | 27 | 1003.5 |
| 20260503193523 | 64 | 299 | 4.3 | 12.2 | 0.00 | 0.00 | 0.00 | 26 | 1003.5 |
| 20260503192520 | 64 | 292 | 5.2 | 10.4 | 0.00 | 0.00 | 0.00 | 25 | 1003.7 |
| 20260503191557 | 64 | 284 | 5.2 | 11.3 | 0.00 | 0.00 | 0.00 | 26 | 1003.7 |
| 20260503190533 | 64 | 292 | 4.3 | 11.3 | 0.00 | 0.00 | 0.00 | 25 | 1003.7 |
| 20260503185530 | 64 | 275 | 5.2 | 13.0 | 0.00 | 0.00 | 0.00 | 24 | 1003.7 |
| 20260503184547 | 63 | 308 | 3.5 | 11.3 | 0.00 | 0.00 | 0.00 | 23 | 1003.8 |
| 20260503183523 | 62 | 283 | 4.3 | 11.3 | 0.00 | 0.00 | 0.00 | 23 | 1004.1 |
| 20260503182520 | 62 | 288 | 4.3 | 7.8 | 0.00 | 0.00 | 0.00 | 22 | 1004.0 |
| 20260503181537 | 63 | 288 | 4.3 | 8.7 | 0.00 | 0.00 | 0.00 | 23 | 1004.2 |
| 20260503180535 | 62 | 275 | 3.5 | 6.1 | 0.00 | 0.00 | 0.00 | 24 | 1004.3 |
| 20260503175530 | 63 | 303 | 5.2 | 13.9 | 0.00 | 0.00 | 0.00 | 24 | 1004.2 |
| 20260503174548 | 62 | 285 | 4.3 | 10.4 | 0.00 | 0.00 | 0.00 | 24 | 1004.3 |
| 20260503173523 | 64 | 276 | 5.2 | 13.9 | 0.00 | 0.00 | 0.00 | 23 | 1004.4 |
| 20260503172520 | 63 | 6 | 3.5 | 9.6 | 0.00 | 0.00 | 0.00 | 22 | 1004.4 |
| 20260503171558 | 62 | 305 | 4.3 | 9.6 | 0.00 | 0.00 | 0.00 | 24 | 1004.4 |
| 20260503170535 | 62 | 292 | 5.2 | 13.0 | 0.00 | 0.00 | 0.00 | 28 | 1004.5 |
| 20260503150533 | 58 | 298 | 4.3 | 8.7 | 0.00 | 0.00 | 0.00 | 49 | 1004.6 |
| 20260503130552 | 53 | 296 | 2.6 | 10.4 | 0.00 | 0.00 | 0.00 | 64 | 1004.5 |
| 20260503110533 | 36 | 214 | 0.9 | 2.6 | 0.00 | 0.00 | 0.00 | 93 | 1003.9 |
| 20260503081517 | 43 | 53 | 1.7 | 4.3 | 0.00 | 0.00 | 0.00 | 82 | 1004.4 |
| 20260503080534 | 44 | 137 | 0.9 | 3.5 | 0.00 | 0.00 | 0.00 | 81 | 1004.5 |
| 20260503072521 | 47 | 124 | 0.9 | 1.7 | 0.00 | 0.00 | 0.00 | 75 | 1004.9 |
| 20260503071519 | 48 | 32 | 0.9 | 3.5 | 0.00 | 0.00 | 0.00 | 75 | 1005.0 |
| 20260503070535 | 48 | 105 | 0.0 | 1.7 | 0.00 | 0.00 | 0.00 | 76 | 1005.0 |